Stations météo

réclame
Mon MeteoGroup
Lugo/Rozas, Espagne (8008): Température de l'air & dewpoint: 21.04.2018 08:00:00 - 27.04.2018 08:00:00 (CEST)Lugo/Rozas, Espagne (8008): Vitesse du vent: 21.04.2018 08:00:00 - 27.04.2018 08:00:00 (CEST)Lugo/Rozas, Espagne (8008): Direction du vent: 21.04.2018 08:00:00 - 27.04.2018 08:00:00 (CEST)Lugo/Rozas, Espagne (8008): reduced air pressure: 21.04.2018 08:00:00 - 27.04.2018 08:00:00 (CEST)Lugo/Rozas, Espagne (8008): visibility: 21.04.2018 08:00:00 - 27.04.2018 08:00:00 (CEST)Lugo/Rozas, Espagne (8008): Quantités de précipitations: 21.04.2018 08:00:00 - 27.04.2018 08:00:00 (CEST)
Date & Time tt [°C] td [°C] ff [km/h] ff [knt] dd ppp [hPa] vv [km] rr [mm]
27.04.2018 08:00:00 8,5 7,6 5 3 SW 1017,2 25 -
27.04.2018 07:00:00 8,6 7,7 8 4 W 1016,7 2,3 0,0
27.04.2018 06:00:00 9,1 6,7 9 5 SW 1016,3 6 0,0
27.04.2018 05:00:00 9,5 5,9 8 4 SW 1016,5 20 -
27.04.2018 04:00:00 8,7 5,6 9 5 SW 1017,1 20 0,0
27.04.2018 03:00:00 6,6 6,3 8 4 SW 1017,9 18 0,0
27.04.2018 02:00:00 5,7 4,5 2 1 S 1018,2 9 -
27.04.2018 01:00:00 6,4 5,2 2 1 NE 1018,2 - 0,0
27.04.2018 00:00:00 7,3 5,8 4 2 WNW 1018,1 10 0,0
26.04.2018 23:00:00 8,6 6,0 2 1 SSW 1017,8 16 -
26.04.2018 22:00:00 9,7 7,3 2 1 ENE 1017,4 18 0,0
26.04.2018 21:00:00 11,7 8,0 4 2 NNE 1017,0 20 0,0
26.04.2018 20:00:00 14,0 8,8 8 4 NE 1016,6 20 -
26.04.2018 19:00:00 15,9 9,1 15 8 ENE 1016,4 20 0,0
26.04.2018 18:00:00 17,9 9,5 8 4 N 1016,4 20 0,0
26.04.2018 17:00:00 18,6 9,1 8 4 N 1016,9 20 -
26.04.2018 16:00:00 17,5 8,9 8 4 N 1017,9 20 0,0
26.04.2018 15:00:00 16,3 8,0 8 4 NE 1019,2 20 0,0
26.04.2018 14:00:00 15,0 7,8 13 7 NE 1020,5 25 -
26.04.2018 13:00:00 14,7 7,5 9 5 NE 1021,3 20 0,0
26.04.2018 12:00:00 12,5 6,5 13 7 ENE 1022,2 20 0,0
26.04.2018 11:00:00 10,8 6,2 11 6 NE 1022,9 20 -
26.04.2018 10:00:00 10,2 6,2 9 5 NE 1023,3 20 0,0
26.04.2018 09:00:00 9,2 6,3 9 5 NE 1023,5 20 0,0
26.04.2018 08:00:00 8,2 6,2 5 3 NE 1023,8 20 -
26.04.2018 07:00:00 8,2 5,8 5 3 NE 1023,7 20 0,0
26.04.2018 06:00:00 8,2 6,2 9 5 NE 1024,0 20 0,0
26.04.2018 05:00:00 7,7 6,3 5 3 NE 1024,1 20 -
26.04.2018 04:00:00 7,9 6,2 5 3 NE 1024,7 20 0,0
26.04.2018 03:00:00 7,6 6,4 8 4 NE 1025,6 20 0,0
26.04.2018 02:00:00 7,5 6,0 4 2 NNE 1025,9 20 -
26.04.2018 01:00:00 6,9 5,4 4 2 NE 1026,4 20 0,0
26.04.2018 00:00:00 7,8 5,9 4 2 NNE 1026,6 20 0,0
25.04.2018 23:00:00 8,4 5,9 8 4 NNE 1026,6 20 -
25.04.2018 22:00:00 9,3 6,4 9 5 NE 1025,9 20 0,0
25.04.2018 21:00:00 9,9 6,8 11 6 NE 1025,1 20 0,0
25.04.2018 20:00:00 10,9 7,6 9 5 NE 1024,7 20 -
25.04.2018 19:00:00 10,9 7,8 11 6 NE 1024,9 20 0,0
25.04.2018 18:00:00 11,6 8,1 9 5 NE 1024,8 20 0,0
25.04.2018 17:00:00 13,0 9,3 9 5 NNE 1024,3 20 -
25.04.2018 16:00:00 13,1 9,3 11 6 NE 1024,5 20 0,0
25.04.2018 15:00:00 15,7 10,7 11 6 NE 1023,7 20 0,0
25.04.2018 14:00:00 15,8 11,0 11 6 NE 1023,7 25 -
25.04.2018 13:00:00 15,0 10,4 8 4 NNE 1023,9 20 0,0
25.04.2018 12:00:00 13,3 9,7 9 5 NE 1024,3 20 0,0
25.04.2018 11:00:00 11,7 9,4 9 5 ENE 1024,1 20 -
25.04.2018 10:00:00 10,5 8,6 9 5 ENE 1024,1 17 0,0
25.04.2018 09:00:00 10,5 8,8 4 2 NNE 1023,2 20 0,0
25.04.2018 08:00:00 10,2 9,0 4 2 NNE 1022,8 20 -
25.04.2018 07:00:00 9,8 8,6 5 3 NE 1022,4 20 0,0
25.04.2018 06:00:00 9,4 8,3 9 5 NE 1022,1 18 0,0
25.04.2018 05:00:00 8,4 7,0 0 0 N 1022,2 11 -
25.04.2018 04:00:00 8,9 7,2 2 1 E 1021,7 13 0,0
25.04.2018 03:00:00 10,0 7,8 2 1 NE 1021,5 20 0,0
25.04.2018 02:00:00 11,0 8,4 8 4 NE 1021,9 20 -
25.04.2018 01:00:00 11,3 9,0 8 4 NE 1021,5 20 0,0
25.04.2018 00:00:00 11,7 9,8 5 3 NE 1021,7 20 0,0
24.04.2018 23:00:00 11,8 10,0 5 3 NE 1021,2 19 -
24.04.2018 22:00:00 11,6 10,0 9 5 NE 1020,8 20 0,0
24.04.2018 21:00:00 12,2 10,1 8 4 NE 1020,0 17 0,0
24.04.2018 20:00:00 14,3 10,9 5 3 NNE 1018,9 20 -
24.04.2018 19:00:00 14,6 11,2 9 5 NE 1018,8 20 0,0
24.04.2018 18:00:00 15,9 11,9 16 9 ENE 1018,6 20 0,0
24.04.2018 17:00:00 19,7 13,6 13 7 NE 1017,2 20 -
24.04.2018 16:00:00 23,9 15,1 9 5 NE 1015,9 20 0,0
24.04.2018 15:00:00 23,2 14,2 5 3 NNW 1016,3 20 0,0
24.04.2018 14:00:00 21,2 13,6 4 2 NNE 1017,1 25 -
24.04.2018 13:00:00 18,9 12,9 5 3 NW 1018,3 20 0,0
24.04.2018 12:00:00 16,3 11,7 4 2 W 1019,1 20 0,0
24.04.2018 11:00:00 12,6 10,3 4 2 NE 1020,2 25 -
24.04.2018 10:00:00 10,8 9,6 8 4 E 1020,5 17 0,0
24.04.2018 09:00:00 10,2 9,3 8 4 ENE 1020,3 17 0,0
24.04.2018 08:00:00 10,0 9,1 8 4 ENE 1019,9 15 -
24.04.2018 07:00:00 10,2 9,4 9 5 ENE 1019,5 12 0,0
24.04.2018 06:00:00 10,5 9,7 9 5 ENE 1019,4 7 0,0
24.04.2018 05:00:00 10,7 9,8 9 5 ENE 1019,7 7 -
24.04.2018 04:00:00 10,7 9,8 8 4 ENE 1019,9 12 0,0
24.04.2018 03:00:00 10,6 10,0 9 5 ENE 1020,3 - 0,0
24.04.2018 02:00:00 10,6 9,7 9 5 ENE 1020,3 9 -
24.04.2018 01:00:00 10,9 9,8 8 4 ENE 1020,6 13 0,0
24.04.2018 00:00:00 11,1 10,0 4 2 NNE 1021,1 11 0,0
23.04.2018 23:00:00 11,0 9,9 8 4 NE 1021,2 14 -
23.04.2018 22:00:00 11,4 10,1 4 2 NNE 1020,7 15 0,0
23.04.2018 21:00:00 11,5 10,1 9 5 NE 1019,8 13 0,0
23.04.2018 20:00:00 12,7 10,4 8 4 NNE 1019,6 14 -
23.04.2018 19:00:00 14,6 10,8 8 4 NNE 1019,2 20 0,0
23.04.2018 18:00:00 15,9 11,5 8 4 NE 1018,9 20 0,0
23.04.2018 17:00:00 16,8 11,5 8 4 NNE 1018,9 20 -
23.04.2018 16:00:00 17,0 11,5 9 5 NE 1019,0 20 0,0
23.04.2018 15:00:00 16,6 11,3 13 7 NE 1019,5 20 0,0
23.04.2018 14:00:00 17,0 12,1 9 5 NE 1019,8 25 -
23.04.2018 13:00:00 16,0 11,0 8 4 N 1020,3 20 0,0
23.04.2018 12:00:00 13,6 10,4 5 3 NE 1020,6 20 0,0
23.04.2018 11:00:00 11,6 9,8 4 2 NE 1021,8 20 -
23.04.2018 10:00:00 10,6 9,4 9 5 ENE 1021,5 20 0,0
23.04.2018 09:00:00 10,2 9,3 5 3 NE 1021,1 18 0,0
23.04.2018 08:00:00 10,2 9,3 4 2 NE 1020,6 15 -
23.04.2018 07:00:00 10,1 9,2 2 1 NNE 1020,3 16 0,0
23.04.2018 06:00:00 9,9 9,1 4 2 NE 1020,0 10 0,0
23.04.2018 05:00:00 9,9 9,1 5 3 NE 1020,1 9 -
23.04.2018 04:00:00 10,2 9,3 2 1 NNE 1020,0 12 0,0
23.04.2018 03:00:00 10,2 9,3 5 3 NE 1019,8 12 0,0
23.04.2018 02:00:00 10,5 9,4 4 2 N 1020,0 16 -
23.04.2018 01:00:00 10,4 9,5 5 3 NE 1020,2 15 0,0
23.04.2018 00:00:00 11,0 9,7 4 2 N 1019,7 15 0,0
22.04.2018 23:00:00 11,1 10,0 5 3 NE 1019,3 10 -
22.04.2018 22:00:00 11,8 10,2 4 2 NNE 1018,9 12 0,0
22.04.2018 21:00:00 12,5 10,6 5 3 NE 1017,9 11 0,0
22.04.2018 20:00:00 15,6 11,8 5 3 NE 1016,2 13 -
22.04.2018 19:00:00 16,8 12,1 13 7 NE 1015,6 20 0,0
22.04.2018 18:00:00 20,6 13,5 13 7 ENE 1014,1 20 0,0
22.04.2018 17:00:00 21,8 14,2 9 5 NE 1013,6 20 -
22.04.2018 16:00:00 23,4 9,8 8 4 WNW 1013,7 7 0,0
22.04.2018 15:00:00 22,4 9,2 5 3 NW 1014,0 20 0,0
22.04.2018 14:00:00 21,7 9,2 5 3 WSW 1014,3 20 -
22.04.2018 13:00:00 21,0 11,6 5 3 E 1015,0 20 0,0
22.04.2018 12:00:00 19,0 11,8 5 3 N 1015,7 20 0,0
22.04.2018 11:00:00 14,4 10,8 4 2 WNW 1016,9 17 -
22.04.2018 10:00:00 11,7 10,8 4 2 NNW 1017,5 13 0,0
22.04.2018 09:00:00 8,7 7,9 2 1 SE 1018,0 9 0,0
22.04.2018 08:00:00 8,4 7,6 5 3 SE 1017,5 11 -
22.04.2018 07:00:00 8,4 7,3 4 2 SE 1017,7 9 0,0
22.04.2018 06:00:00 8,5 7,0 4 2 SSW 1017,9 10 0,0
22.04.2018 05:00:00 9,5 8,1 5 3 SE 1017,5 13 -
22.04.2018 04:00:00 9,8 8,2 2 1 ESE 1018,3 13 0,0
22.04.2018 03:00:00 11,1 9,2 2 1 N 1018,4 15 0,0
22.04.2018 02:00:00 12,0 9,2 4 2 S 1017,7 16 -
22.04.2018 01:00:00 13,6 10,4 4 2 SE 1017,2 19 0,0
22.04.2018 00:00:00 14,5 10,5 2 1 SSE 1017,3 20 0,0
21.04.2018 23:00:00 14,9 10,1 2 1 SSE 1016,8 20 -
21.04.2018 22:00:00 16,8 10,4 4 2 S 1016,0 19 0,0
21.04.2018 21:00:00 18,4 10,5 8 4 WSW 1015,3 20 0,0
21.04.2018 20:00:00 21,1 8,7 13 7 SW 1014,5 20 -
21.04.2018 19:00:00 22,4 9,2 5 3 SW 1013,7 20 0,0
21.04.2018 18:00:00 23,8 8,2 8 4 SW 1013,3 20 0,0
21.04.2018 17:00:00 24,6 9,3 5 3 NW 1013,2 20 -
21.04.2018 16:00:00 23,1 9,1 9 5 WSW 1013,7 20 0,0
21.04.2018 15:00:00 23,1 8,8 9 5 SW 1014,0 19 0,0
21.04.2018 14:00:00 21,5 13,4 4 2 NW 1014,4 20 -
21.04.2018 13:00:00 18,6 12,6 4 2 NW 1015,7 20 0,0
21.04.2018 12:00:00 16,2 12,2 2 1 NE 1016,1 20 0,0
21.04.2018 11:00:00 13,3 10,5 2 1 ESE 1016,9 20 -
21.04.2018 10:00:00 10,0 9,2 4 2 ENE 1017,8 15 0,0
21.04.2018 09:00:00 6,4 6,0 2 1 NNE 1018,3 1,7 0,0
21.04.2018 08:00:00 5,4 4,7 0 0 N 1018,2 4,4 -

tt = Température de l'air
td = dewpoint
ff = Vitesse du vent
dd = Direction du vent
ppp = reduced air pressure
vv = visibility
rr = Quantités de précipitations

stations d'obs. à proximité